Location: Vancouver
(49.2500°N, 123.1330°W)
Time: 19:23:25
(UTC-07:00)

deb Explorer IX - Visible Passes

Search period start: 31 October 2014 00:00
Search period end: 09 November 2014 23:00
Orbit: 558 x 1204 km, 38.8° (Epoch: 30 October)

Date Brightness Start Highest point End Pass type
(mag) Time Alt. Az. Time Alt. Az. Time Alt. Az.
31 Oct ? 03:55:57 18° ESE 03:55:57 18° ESE 03:57:45 10° ESE visible
31 Oct ? 05:38:30 29° SSW 05:39:44 31° SSW 05:44:58 10° SE visible
31 Oct ? 07:23:09 10° WSW 07:26:58 17° SSW 07:30:26 10° S visible
01 Nov ? 03:51:36 17° ESE 03:51:36 17° ESE 03:53:04 10° ESE visible
01 Nov ? 05:34:08 29° SSW 05:34:53 30° SSW 05:40:08 10° SE visible
01 Nov ? 07:18:42 10° WSW 07:22:01 15° SSW 07:25:06 10° S visible
02 Nov ? 02:47:12 15° ESE 02:47:12 15° ESE 02:48:17 10° ESE visible
02 Nov ? 04:29:45 29° SSW 04:29:56 29° SSW 04:35:11 10° SE visible
02 Nov ? 06:14:23 10° WSW 06:16:59 13° SW 06:19:27 10° SSW visible
03 Nov ? 02:42:46 13° ESE 02:42:46 13° ESE 02:43:23 10° ESE visible
03 Nov ? 04:25:19 27° SSW 04:25:19 27° SSW 04:30:06 10° SE visible
03 Nov ? 06:10:33 10° SW 06:11:51 11° SW 06:13:06 10° SSW visible
04 Nov ? 02:38:19 10° ESE 02:38:19 10° ESE 02:38:23 10° ESE visible
04 Nov ? 04:20:52 24° S 04:20:52 24° S 04:24:53 10° SSE visible
05 Nov ? 04:16:23 20° S 04:16:23 20° S 04:19:31 10° SSE visible
06 Nov ? 04:11:54 17° S 04:11:54 17° S 04:13:58 10° SSE visible
07 Nov ? 04:07:23 12° S 04:07:23 12° S 04:08:14 10° S visible
